Regional Weather Roundup
Issued by NWS

Home | Current Version | Previous Version | Graphics & Text | Print | Product List | Glossary On
Versions: 1 2 3 4 5 6 7 8 9 10 11 12 13 14 15 16 17 18 19 20 21 22 23 24 25 26 27
000
ASUS45 KCYS 180210
RWRWY

WYOMING REGIONAL WEATHER ROUNDUP
NATIONAL WEATHER SERVICE CHEYENNE WY
800 PM MDT THU APR 17 2014

NOTE:  "FAIR" INDICATES FEW OR NO CLOUDS BELOW 12,000 FEET
WITH NO SIGNIFICANT WEATHER AND/OR OBSTRUCTIONS TO VISIBILITY.

WYZ001-180300-
YELLOWSTONE NATIONAL PARK

CITY           SKY/WX    TMP DP  RH WIND       PRES   REMARKS
LK YELLOWSTONE   N/A     39  22  50 W3        29.98S
W YELLOWSTONE  NOT AVBL

$$
WYZ002>013-054>058-071-098>099-180300-
NORTHERN WYOMING

CITY           SKY/WX    TMP DP  RH WIND       PRES   REMARKS
JACKSON        CLEAR     48  21  34 SW7       29.94
CODY           MOCLDY    57  23  26 SW10      29.84R
GREYBULL       MOCLDY    58  30  34 SE5       29.81F
WORLAND        MOCLDY    56  30  37 E9        29.81F
SHERIDAN       PTCLDY    52  32  46 SE6       29.82F
BUFFALO        PTCLDY    48  33  56 W9        29.86F
GILLETTE       CLEAR     50  35  56 S12       29.87S
HULETT         FAIR     N/A N/A N/A E8        29.91
NEWCASTLE      FAIR      48  32  53 SE12      29.93

$$
WYZ014>020-022>026-101>103-180300-
CENTRAL WYOMING

CITY           SKY/WX    TMP DP  RH WIND       PRES   REMARKS
BIG PINEY      PTCLDY    49  20  31 W7        29.98F
PINEDALE       PTCLDY    45  27  49 N7        29.99S
DUBOIS         FAIR      45  18  33 N8G18     29.94S
LANDER         CLOUDY    55  29  36 SE6       29.87S
RIVERTON       CLOUDY    57  18  21 SE5       29.88S
CASPER         MOCLDY    50  27  40 W7        29.89S
DOUGLAS        PTCLDY    49  34  56 SE9       29.92S

$$
WYZ021-027>030-104>119-180300-
SOUTHERN WYOMING

CITY           SKY/WX    TMP DP  RH WIND       PRES   REMARKS
EVANSTON       CLEAR     52  24  33 W12       29.99S
KEMMERER       CLEAR     50  21  32 W8        30.00S
FORT BRIDGER   FAIR      56  23  28 W7        30.00F
ROCK SPRINGS   PTCLDY    54  18  24 W7        29.97S
DIXON          FAIR      51  21  31 S7        30.04S
RAWLINS        MOCLDY    51  17  26 SW12      29.98S
SARATOGA       FAIR      50  21  32 SW8       30.03R
LARAMIE        CLEAR     44  21  40 W12       30.02R
CHEYENNE       CLEAR     50  24  36 S13       30.00R
TORRINGTON     CLEAR     52  34  50 E14       29.93S
PINE BLUFFS    FAIR      46  28  49 S6        29.99R

$$



USA.gov is the U.S. government's official web portal to all federal, state and local government web resources and services.